Flag for Germany Weather past 2 weeks in Bad Hersfeld, Hesse, Germany

Now
54 °F

Partly sunny.


Feels Like: 51 °F
Forecast: 47 / 57 °F
Wind: 8 mph from Southwest

Location: Fritzlar Airport

Current Time: Oct 25, 2014 at 6:20:34 PM

Latest Report: Oct 25, 2014 at 5:20 PM


Visibility: N/A

Pressure: 30.12 "Hg

Humidity: 88%

Dew point: 50 °F

Location of Bad HersfeldLocation

Historic Weather in Bad Hersfeld — Graph

°F

Bad Hersfeld temperature yesterday

Maximum temperature yesterday: 55 °F (at 2:20 PM)
Minimum temperature yesterday: 45 °F (at 8:20 AM)
Average temperature yesterday: 50 °F

Past Weeks' High & Low Weather Summary

 TemperatureHumidityPressure
High66 °F (Oct 18, 4:20 PM)100% (Oct 10, 9:20 PM)30.24 "Hg (Oct 10, 9:20 PM)
Low43 °F (Oct 22, 4:20 AM)63% (Oct 15, 1:20 PM)29.50 "Hg (Oct 21, 6:20 PM)
Average54 °F87%29.93 "Hg
* Reported Oct 10 4:20 PM — Oct 25 4:20 PM, Bad Hersfeld, Weather by CustomWeather, © 2014

Note: Actual official high and low records may vary slightly from our data, if they occured in-between our weather recording intervals... More about our weather records

Advertising

Bad Hersfeld weather history for previous 24 hours

 ConditionsComfort  
Time TempWeatherWind HumidityBarometerVisibility
4:20 PM
Oct 25
55 °FBroken clouds.7 mph82%30.12 "HgN/A
3:20 PM55 °FPartly sunny.8 mph82%30.12 "HgN/A
2:20 PM57 °FBroken clouds.9 mph77%30.09 "HgN/A
1:20 PM54 °FPartly sunny.7 mph82%30.12 "HgN/A
12:20 PM54 °FPartly sunny.6 mph77%30.12 "HgN/A
11:20 AM52 °FPartly sunny.7 mph82%30.12 "HgN/A
10:20 AM50 °FPartly sunny.6 mph82%30.09 "HgN/A
9:20 AM50 °FPartly sunny.6 mph82%30.09 "HgN/A
8:20 AM48 °FLight rain. Passing clouds.5 mph87%30.09 "HgN/A
7:20 AM48 °FPassing clouds.7 mph82%30.07 "HgN/A
6:20 AM48 °FPassing clouds.7 mph87%30.07 "HgN/A
5:20 AM48 °FCool.7 mph82%30.07 "HgN/A
4:20 AM50 °FCool.6 mph76%30.07 "HgN/A
3:20 AM48 °FCool.7 mph87%30.07 "HgN/A
2:20 AM48 °FCool.6 mph82%30.09 "HgN/A
1:20 AM46 °FCool.6 mph87%30.09 "HgN/A
12:20 AM46 °FCool.8 mph87%30.09 "HgN/A
11:20 PM
Oct 24
48 °FCool.5 mph82%30.09 "HgN/A
10:20 PM48 °FCool.6 mph82%30.12 "HgN/A
9:20 PM48 °FCool.5 mph82%30.12 "HgN/A
8:20 PM46 °FCool.3 mph93%30.12 "HgN/A
7:20 PM48 °FCool.2 mph87%30.12 "HgN/A
6:20 PM52 °FCool.3 mph72%30.09 "HgN/A
Weather by CustomWeather, © 2014

See weather overviewHow to use our weather pages